Location: The Saddle
(36.8333°N, 80.3417°W)
Time: 09:51:26
(UTC-05:00)

SR - Pass Details

Date: 17 December 2023
Orbit: 574 x 867 km, 66.7° (Epoch: 03 March)

Event Time Altitude Azimuth Distance (km) Brightness Sun altitude
Rises 18:31:58 0° 324° (NW) 3,396 ? -16.5°
Maximum altitude 18:39:44 37° 251° (WSW) 1,201 ? -18.0°
Drops below altitude 10° 18:44:28 10° 185° (S) 2,245 ? -18.9°
Sets 18:46:53 0° 176° (S) 3,114 ? -19.4°
